Valley City, ND

9:56 AM CST on November 15, 2019 (GMT -0600)
Valley City

Weather History for KBAC - August, 2019

Change the Weather History Date:

Wednesday, August 28, 2019

  Actual Average (KJMS) Record (KJMS)
Temperature  
Mean Temperature 60 °F -  
Max Temperature 71 °F 83 °F 101 °F (1905)
Min Temperature 50 °F 54 °F 32 °F (1935)
Degree Days  
Heating Degree Days 4    
Growing Degree Days 10 (Base 50)    
Moisture  
Dew Point 52 °F    
Average Humidity 78    
Maximum Humidity 100    
Minimum Humidity 46    
Precipitation  
Precipitation 0.00 in - - ()
Sea Level Pressure  
Sea Level Pressure 29.89 in    
Wind  
Wind Speed 11 mph ()    
Max Wind Speed 21 mph    
Max Gust Speed 29 mph    
Visibility 10.0 miles    
Events      
Averages and records for this station are not official NWS values.
T = Trace of Precipitation, MM = Missing Value Source: Averaged Metar Reports

Daily Weather History Graph

Daily Weather History Graph

Search for Another Location

Airport or City:

Astronomy

Aug. 28, 2019 Rise Set
Actual Time 6:46 AM CDT 8:19 PM CDT
Civil Twilight 6:14 AM CDT 8:51 PM CDT
Nautical Twilight 5:35 AM CDT 9:30 PM CDT
Astronomical Twilight 4:53 AM CDT 10:11 PM CDT
Moon 4:07 AM CDT (8/28) 7:42 PM CDT (8/28)
Length of Visible Light 14h 37m
Length of Day
13h 33m
Waning Crescent, 4% of the Moon is Illuminated
Aug 28
Waning Crescent
Aug 30
New
Sep 5
First Quarter
Sep 13
Full
Sep 21
Last Quarter

Hourly Weather History & Observations

Time (CDT) Temp. Dew Point Humidity Pressure Visibility Wind Dir Wind Speed Gust Speed Precip Events Conditions
12:15 AM 53.6 °F 53.6 °F 100% 29.88 in 10.0 mi WNW 10.4 mph - N/A   Clear
12:35 AM 51.8 °F 51.8 °F 100% 29.89 in 10.0 mi West 8.1 mph - N/A   Clear
12:55 AM 51.8 °F 51.8 °F 100% 29.89 in 10.0 mi West 11.5 mph - N/A   Scattered Clouds
1:15 AM - - N/A% 29.88 in 10.0 mi West 12.7 mph - N/A   Scattered Clouds
1:35 AM 53.6 °F 53.6 °F 100% 29.89 in 10.0 mi West 11.5 mph - N/A   Partly Cloudy
1:55 AM 51.8 °F 51.8 °F 100% 29.89 in 10.0 mi West 13.8 mph - N/A   Partly Cloudy
2:15 AM 51.8 °F 51.8 °F 100% 29.89 in 10.0 mi West 11.5 mph 18.4 mph N/A   Partly Cloudy
2:35 AM 51.8 °F 51.8 °F 100% 29.89 in 10.0 mi West 11.5 mph - N/A   Clear
2:55 AM 51.8 °F 51.8 °F 100% 29.89 in 10.0 mi WNW 9.2 mph - N/A   Clear
3:15 AM 51.8 °F 51.8 °F 100% 29.89 in 10.0 mi West 11.5 mph - N/A   Clear
3:35 AM 51.8 °F 51.8 °F 100% 29.90 in 10.0 mi West 12.7 mph - N/A   Clear
3:55 AM 51.8 °F 51.8 °F 100% 29.90 in 10.0 mi West 12.7 mph - N/A   Clear
4:35 AM 50.0 °F 50.0 °F 100% 29.91 in 10.0 mi West 11.5 mph - N/A   Clear
4:55 AM 50.0 °F 50.0 °F 100% 29.91 in 10.0 mi West 13.8 mph - N/A   Clear
5:15 AM 50.0 °F 50.0 °F 100% 29.92 in 10.0 mi West 11.5 mph - N/A   Clear
5:35 AM 50.0 °F 50.0 °F 100% 29.92 in 10.0 mi West 11.5 mph - N/A   Clear
5:55 AM 50.0 °F 50.0 °F 100% 29.92 in 10.0 mi West 9.2 mph - N/A   Clear
6:15 AM 50.0 °F 50.0 °F 100% 29.92 in 10.0 mi West 10.4 mph - N/A   Clear
6:35 AM 50.0 °F 50.0 °F 100% 29.93 in 10.0 mi West 10.4 mph - N/A   Clear
6:55 AM 50.0 °F 50.0 °F 100% 29.94 in 10.0 mi West 8.1 mph 15.0 mph N/A   Clear
7:15 AM 50.0 °F 50.0 °F 100% 29.94 in 10.0 mi West 10.4 mph - N/A   Clear
7:35 AM 50.0 °F 50.0 °F 100% 29.94 in 10.0 mi West 11.5 mph - N/A   Clear
7:55 AM 51.8 °F 51.8 °F 100% 29.94 in 10.0 mi WNW 10.4 mph - N/A   Clear
8:15 AM 51.8 °F 51.8 °F 100% 29.94 in 10.0 mi WNW 11.5 mph - N/A   Clear
8:35 AM 53.6 °F 53.6 °F 100% 29.95 in 10.0 mi WNW 11.5 mph - N/A   Clear
8:55 AM 55.4 °F 53.6 °F 94% 29.95 in 10.0 mi WNW 10.4 mph - N/A   Clear
9:15 AM 55.4 °F 53.6 °F 94% 29.95 in 10.0 mi North - - N/A   Clear
9:35 AM 57.2 °F 51.8 °F 82% 29.95 in 10.0 mi WNW 12.7 mph - N/A   Clear
9:55 AM 59.0 °F 53.6 °F 82% 29.95 in 10.0 mi WNW 13.8 mph - N/A   Clear
10:15 AM 59.0 °F 51.8 °F 77% 29.96 in 10.0 mi WNW 16.1 mph 23.0 mph N/A   Clear
10:35 AM 60.8 °F 53.6 °F 77% 29.96 in 10.0 mi WNW 15.0 mph - N/A   Clear
10:55 AM 62.6 °F 51.8 °F 68% 29.96 in 10.0 mi WNW 17.3 mph - N/A   Clear
11:15 AM 62.6 °F 51.8 °F 68% 29.96 in 10.0 mi NW 15.0 mph - N/A   Clear
11:35 AM 64.4 °F 50.0 °F 59% 29.95 in 10.0 mi WNW 17.3 mph - N/A   Clear
11:55 AM 64.4 °F 48.2 °F 56% 29.95 in 10.0 mi WNW 19.6 mph 26.5 mph N/A   Clear
12:15 PM 66.2 °F 48.2 °F 52% 29.95 in 10.0 mi NW 18.4 mph 28.8 mph N/A   Clear
12:35 PM 66.2 °F 48.2 °F 52% 29.95 in 10.0 mi NW 16.1 mph 26.5 mph N/A   Clear
12:55 PM 66.2 °F 48.2 °F 52% 29.94 in 10.0 mi NW 20.7 mph - N/A   Clear
1:15 PM 66.2 °F 48.2 °F 52% 29.94 in 10.0 mi WNW 17.3 mph 23.0 mph N/A   Clear
1:35 PM 68.0 °F 50.0 °F 52% 29.93 in 10.0 mi WNW 16.1 mph - N/A   Clear
1:55 PM 68.0 °F 50.0 °F 52% 29.94 in 10.0 mi NW 16.1 mph 23.0 mph N/A   Clear
2:15 PM 68.0 °F 48.2 °F 49% 29.93 in 10.0 mi WNW 15.0 mph 20.7 mph N/A   Clear
2:35 PM 69.8 °F 50.0 °F 49% 29.93 in 10.0 mi WNW 13.8 mph - N/A   Clear
2:55 PM 69.8 °F 48.2 °F 46% 29.93 in 10.0 mi WNW 15.0 mph 21.9 mph N/A   Clear
3:15 PM 69.8 °F 48.2 °F 46% 29.92 in 10.0 mi West 13.8 mph - N/A   Clear
3:35 PM 69.8 °F 50.0 °F 49% 29.92 in 10.0 mi WNW 9.2 mph 18.4 mph N/A   Clear
3:55 PM 69.8 °F 50.0 °F 49% 29.91 in 10.0 mi West 8.1 mph 17.3 mph N/A   Clear
4:15 PM 71.6 °F 50.0 °F 46% 29.91 in 10.0 mi WSW 12.7 mph - N/A   Clear
4:35 PM 69.8 °F 50.0 °F 49% 29.90 in 10.0 mi West 10.4 mph - N/A   Clear
4:55 PM 69.8 °F 51.8 °F 53% 29.89 in 10.0 mi West 11.5 mph 18.4 mph N/A   Clear
5:15 PM 71.6 °F 50.0 °F 46% 29.88 in 10.0 mi West 10.4 mph - N/A   Clear
5:35 PM 71.6 °F 51.8 °F 50% 29.88 in 10.0 mi West 10.4 mph - N/A   Clear
5:55 PM 69.8 °F 50.0 °F 49% 29.88 in 10.0 mi West 10.4 mph - N/A   Clear
6:15 PM 69.8 °F 51.8 °F 53% 29.87 in 10.0 mi WSW 10.4 mph - N/A   Clear
6:35 PM 69.8 °F 51.8 °F 53% 29.86 in 10.0 mi WSW 6.9 mph - N/A   Clear
6:55 PM 69.8 °F 51.8 °F 53% 29.85 in 10.0 mi WSW 6.9 mph - N/A   Clear
7:15 PM 68.0 °F 53.6 °F 60% 29.85 in 10.0 mi SW 5.8 mph - N/A   Clear
7:35 PM 66.2 °F 55.4 °F 68% 29.84 in 10.0 mi SSW 3.5 mph - N/A   Clear
7:55 PM 64.4 °F 57.2 °F 77% 29.84 in 10.0 mi SSW 5.8 mph - N/A   Clear
8:15 PM 60.8 °F 57.2 °F 88% 29.84 in 10.0 mi SSW 6.9 mph - N/A   Clear
8:35 PM 60.8 °F 55.4 °F 82% 29.83 in 10.0 mi South 6.9 mph - N/A   Clear
8:55 PM 59.0 °F 55.4 °F 88% 29.82 in 10.0 mi South 6.9 mph - N/A   Clear
9:15 PM 59.0 °F 55.4 °F 88% 29.82 in 10.0 mi South 8.1 mph - N/A   Clear
9:35 PM 59.0 °F 55.4 °F 88% 29.81 in 10.0 mi South 8.1 mph - N/A   Clear
9:55 PM 59.0 °F 57.2 °F 94% 29.80 in 10.0 mi South 8.1 mph - N/A   Clear
10:15 PM 59.0 °F 55.4 °F 88% 29.79 in 10.0 mi South 10.4 mph - N/A   Clear
10:35 PM 57.2 °F 55.4 °F 94% 29.77 in 10.0 mi South 11.5 mph - N/A   Clear
10:55 PM 59.0 °F 55.4 °F 88% 29.76 in 10.0 mi South 11.5 mph - N/A   Clear
11:15 PM 59.0 °F 55.4 °F 88% 29.75 in 10.0 mi South 11.5 mph - N/A   Clear
11:35 PM 59.0 °F 55.4 °F 88% 29.74 in 10.0 mi South 12.7 mph - N/A   Clear
11:55 PM 59.0 °F 55.4 °F 88% 29.73 in 10.0 mi SSW 13.8 mph - N/A   Clear